Regional Weather Roundup
Issued by NWS

Home | Current Version | Previous Version | Text Only | Print | Product List | Glossary Off
Versions: 1 2 3 4 5 6 7 8 9 10 11 12 13 14 15 16 17 18 19 20 21 22 23 24 25 26 27

000
ASUS45 KSLC 201010
RWRUT

UTAH REGIONAL WEATHER ROUNDUP
NATIONAL WEATHER SERVICE SALT LAKE CITY UT
400 AM MDT FRI APR 20 2018

UTZ001>011-023>025-201100-

NORTHERN UTAH

CITY           SKY/WX    TMP DP  RH WIND       PRES   REMARKS
BRIGHAM CITY     N/A     52  22  31 N16       29.77R
HILL AFB       MOCLDY    56  23  28 NE12G18   29.73R
LOGAN            N/A     50  26  39 S7        29.80R
OGDEN            N/A     54  25  32 NW9       29.72R
SALT LAKE CITY   N/A     48  34  58 SW10      29.71R
TOOELE VALLEY    N/A     43  36  75 S5        29.73S
WENDOVER         N/A     54  24  31 NW29G37   29.80R
HEBER CITY     CLOUDY    46  30  53 E10       29.74F
WEST JORDAN      N/A     51  30  44 SE6       29.73R

$$

UTZ011>015-024>027-201100-

CENTRAL/NORTHEAST UTAH

CITY           SKY/WX    TMP DP  RH WIND       PRES   REMARKS
PROVO AIRPORT    N/A     46  33  60 S6        29.75R
MOAB/CANYONLAN   N/A     49  13  23 SW10      29.72R
DELTA            N/A     37  34  87 S17       29.77S WCI  28
PRICE          CLOUDY    43  24  47 CALM      29.74R
RICHFIELD      CLOUDY    36  36 100 E7        29.80R FOG     WCI  30
ROOSEVELT        N/A     48  34  57 NE7       29.78F
VERNAL         MOCLDY    46  39  76 NE6       29.81S

$$

UTZ013>016-019>022-027-201100-

SOUTHERN UTAH

CITY           SKY/WX    TMP DP  RH WIND       PRES   REMARKS
BRYCE CANYON   CLOUDY    26  23  88 S6        29.80F WCI  19
CEDAR CITY     FLURRIES  35  33  92 SW9       29.83S WCI  28
MILFORD        LGT RAIN  38  38 100 S13       29.79F WCI  30
ST GEORGE        N/A     47  33  58 S3        29.87R
HANKSVILLE       N/A     45  16  31 S6        29.76R
KANAB          CLEAR     36  30  80 S6        29.90R WCI  31
BLANDING         N/A     39  11  31 S3        29.88F

$$

REGIONAL REPORTS     COLORADO/ARIZONA

CITY           SKY/WX    TMP DP  RH WIND       PRES   REMARKS
CRAIG, CO      CLOUDY    47  36  65 SW10      29.83R
GRAND JUNCTION CLOUDY    57  17  21 S15       29.79S
RIFLE, CO      LGT RAIN  51  32  48 CALM      29.82R
MONTROSE, CO   CLOUDY    48  24  39 MISG      29.89R
CORTEZ, CO     MOCLDY    45  13  27 S8        29.85S
COLORADO CITY    N/A     36  34  93 CALM      29.91R
PAGE, AZ       MOCLDY    47  27  45 W3        29.83R
GRAND CANYON   NOT AVBL
KINGMAN, AZ    CLOUDY    49  30  48 W15       29.93R
FLAGSTAFF, AZ    N/A     29  17  61 SW7       29.91S WCI  22

$$

REGIONAL REPORTS    NEVADA/IDAHO/WYOMING

CITY           SKY/WX    TMP DP  RH WIND       PRES   REMARKS
LAS VEGAS, NV  MOCLDY    57  34  41 N22G28    29.91R
ELY, NY        CLOUDY    40  23  50 N8G17     29.91R WCI  34
ELKO, NV         N/A     39  27  62 VRB7      30.00R WCI  34
POCATELLO, ID    N/A     43  27  53 E5        29.94R
BURLEY, ID       N/A     41  31  67 W10       29.95R
FORT BRIDGER,  PTSUNNY   40  35  81 E16G22    29.90S WCI  31
EVANSTON, WY   CLOUDY    42  23  46 NE9       29.87R
ROCK SPRINGS,  CLOUDY    41  22  46 NE16      29.87F
KEMMERER, WY     N/A     41  23  48 E17G24    29.90R

$$




USA.gov is the U.S. government's official web portal to all federal, state and local government web resources and services.